THOR ABLESTAR DEB, 5716

Orbit data source: Space-Track

THOR ABLESTAR DEB, 5716 is space debris in LEO originally from a launch on Thu, 29 Jun 1961 UTC launched from the Air Force Eastern Test Range (AFETR). Debris objects in space refer to the collection of defunct objects orbiting the Earth. Examples of debris include non-operational satellites, rocket bodies, and fragments generated from explosions, collisions, or faulty payload assembly.

Loading next visibility...
Identifier
5716, 1961-015JT
Orbit
LEO
Country
Flag of USUS
Related business
Manufacturer
Unknown
Mission
Spacecraft
Bus & Motor
Unknown
Mass
Unknown
Launch date (UTC)
1961-06-29 (64 years ago)
Launch vehicle
Unknown
Launch site
Air Force Eastern Test Range (AFETR)
Object type
Payload
Rocket body
Debris
Shape & HBR
Unknown shape, 0.1 m
Radar Cross Section
Small (<0.1 m²)

Expand to show TLE details & history
Last TLE update: 23 hours ago

TLE from 23 hours ago
0 THOR ABLESTAR DEB
1 05716U 61015JT  25298.09138342  .00003476  00000-0  64874-3 0  9990
2 05716  66.6948 183.5113 0072445 203.7495 156.0273 14.64558390325957
Epoch: 2025-10-25T02:11Z
TLE epoch observation values (Epoch: 2025-10-25T02:11:35.527Z)
Latitude
-0.00001°
Longitude
116.88636°
Altitude
727.412 km
Speed
7.467 km/s
True Right ascension
12h 14m 02s
True Declination
0° 00' 00"
Sunlit
Object was in daylight at epoch
Visualization orbit readout
Latitude
Unknown
Longitude
Unknown
Altitude
Unknown
Speed
Unknown
Apparent Right ascension
Unknown
Apparent Declination
Unknown
Sunlit
N/A
Visualization observer readout
Local Sidereal Time
20:14:45
Azimuth
Unknown
Elevation
Unknown
Doppler factor
Unknown
Orbital elements
Apogee altitude
727.953 km
Perigee altitude
625.733 km
Semi-major axis
7,054.98 km
Eccentricity
0.00724
Inclination
66.6948°
RAAN
183.5113°
Arg. of periapsis
203.7495°
True anomaly
156.36182°
Mean anomaly
156.0273°
Eccentric anomaly
156.19484°
Mean motion
3.66268 °/min
Orbital period
98.29 mins
BSTAR
0.00064874
Loading maneuver chart data...
Computing Atmospheric mass density...

Documentation

Showing up to 5 results
|